Location: Newark
(58.9986°N, 38.5006°E)
Time: 08:53:20
(UTC+00:00)

Explorer 7 - Pass Details

Date: 21 April 2021
Orbit: 484 x 677 km, 50.3° (Epoch: 11 May)

Event Time Altitude Azimuth Distance (km) Brightness Sun altitude
Rises 20:43:46 0° 259° (W) 2,749 10.4 -18.4°
Reaches altitude 10° 20:46:16 10° 245° (WSW) 1,888 9.4 -18.4°
Enters shadow 20:47:14 15° 236° (SW) 1,615 9.0 -18.4°
